,,Stat6,,Stat2,,Stat8,,Stat9,,Stat10,,Wind1,,Wind1,
time,status,PA1M_AVG,status,PR1M_SUM,status,RH1M_AVG,status,SR1M_AVG,status,TA1M_AVG,status,W1dAve1m,status,W1sAve1m,
2005-03-13, 00:00:00,VALID,918.952,VALID,0,VALID,97.6109,VALID,-0.0169808,VALID,20.545,VALID,127,VALID,0,
2005-03-13, 00:01:00,VALID,918.952,VALID,0,VALID,97.5461,VALID,-0.0169808,VALID,20.51,VALID,127,VALID,0.00898437,
2005-03-13, 00:02:00,VALID,918.921,VALID,0,VALID,97.8741,VALID,-0.0509425,VALID,20.4804,VALID,127,VALID,0.104725,
2005-03-13, 00:03:00,VALID,918.904,VALID,0,VALID,97.9199,VALID,-0.0169808,VALID,20.4546,VALID,127,VALID,0.415777,
2005-03-13, 00:04:00,VALID,918.882,VALID,0,VALID,98.2823,VALID,-0.0339617,VALID,20.4384,VALID,127,VALID,0.571948,
2005-03-13, 00:05:00,VALID,918.859,VALID,0,VALID,98.515,VALID,-0.0339617,VALID,20.4228,VALID,126,VALID,0.681021,
2005-03-13, 00:06:00,VALID,918.849,VALID,0,VALID,98.8189,VALID,-0.0509425,VALID,20.4123,VALID,126,VALID,0.612571,
2005-03-13, 00:07:00,VALID,918.841,VALID,0,VALID,98.8126,VALID,0,VALID,20.4029,VALID,128,VALID,0.439024,
2005-03-13, 00:08:00,VALID,918.827,VALID,0,VALID,98.8914,VALID,-0.0169808,VALID,20.3932,VALID,107,VALID,0.523619,
2005-03-13, 00:09:00,VALID,918.821,VALID,0,VALID,98.838,VALID,-0.0169808,VALID,20.3768,VALID,119,VALID,0.423147,
2005-03-13, 00:10:00,VALID,918.811,VALID,0,VALID,98.7795,VALID,0,VALID,20.3512,VALID,125,VALID,0.623001,
2005-03-13, 00:11:00,VALID,918.8,VALID,0,VALID,99.0198,VALID,-0.0169808,VALID,20.3518,VALID,122,VALID,1.05503,
2005-03-13, 00:12:00,VALID,918.79,VALID,0,VALID,99.0338,VALID,-0.0169808,VALID,20.3386,VALID,129,VALID,0.74201,
2005-03-13, 00:13:00,VALID,918.769,VALID,0,VALID,99.0618,VALID,0,VALID,20.3222,VALID,129,VALID,0.653516,
2005-03-13, 00:14:00,VALID,918.764,VALID,0,VALID,99.0287,VALID,0.0169808,VALID,20.3063,VALID,114,VALID,1.03214,
2005-03-13, 00:15:00,VALID,918.753,VALID,0,VALID,99.1572,VALID,-0.0169808,VALID,20.3033,VALID,119,VALID,1.15339,
2005-03-13, 00:16:00,VALID,918.751,VALID,0,VALID,99.1521,VALID,0,VALID,20.2966,VALID,121,VALID,0.913517,
2005-03-13, 00:17:00,VALID,918.731,VALID,0,VALID,99.203,VALID,-0.0169808,VALID,20.2772,VALID,129,VALID,0.406613,
2005-03-13, 00:18:00,VALID,918.717,VALID,0,VALID,99.3021,VALID,0,VALID,20.2705,VALID,112,VALID,0.792361,
2005-03-13, 00:19:00,VALID,918.699,VALID,0,VALID,99.292,VALID,-0.0339617,VALID,20.2743,VALID,114,VALID,0.706731,
2005-03-13, 00:20:00,VALID,918.692,VALID,0,VALID,99.2958,VALID,-0.118866,VALID,20.2626,VALID,100,VALID,0.706055,
2005-03-13, 00:21:00,VALID,918.683,VALID,0,VALID,99.3212,VALID,0,VALID,20.2382,VALID,109,VALID,1.20275,
2005-03-13, 00:22:00,VALID,918.682,VALID,0,VALID,99.3174,VALID,-0.0169808,VALID,20.2293,VALID,105,VALID,1.12188,
2005-03-13, 00:23:00,VALID,918.665,VALID,0,VALID,99.2856,VALID,0,VALID,20.2,VALID,92,VALID,0.919618,
2005-03-13, 00:24:00,VALID,918.658,VALID,0,VALID,99.2665,VALID,0,VALID,20.1583,VALID,83,VALID,1.14272,
2005-03-13, 00:25:00,VALID,918.641,VALID,0,VALID,99.3568,VALID,-0.0169808,VALID,20.1386,VALID,70,VALID,0.937686,
2005-03-13, 00:26:00,VALID,918.629,VALID,0,VALID,99.3009,VALID,0,VALID,20.0996,VALID,76,VALID,0.898438,
2005-03-13, 00:27:00,VALID,918.614,VALID,0,VALID,99.2589,VALID,0,VALID,20.0805,VALID,77,VALID,0.704942,
2005-03-13, 00:28:00,VALID,918.605,VALID,0,VALID,99.3556,VALID,0.0169808,VALID,20.0482,VALID,74,VALID,1.02969,
2005-03-13, 00:29:00,VALID,918.594,VALID,0,VALID,99.4179,VALID,-0.0169808,VALID,20.0286,VALID,71,VALID,0.852108,
2005-03-13, 00:30:00,VALID,918.594,VALID,0,VALID,99.5018,VALID,0,VALID,20.0092,VALID,72,VALID,0.923314,
2005-03-13, 00:31:00,VALID,918.587,VALID,0,VALID,99.7981,VALID,0.0339617,VALID,20.0288,VALID,83,VALID,1.04688,
2005-03-13, 00:32:00,VALID,918.577,VALID,0,VALID,99.9481,VALID,0,VALID,20.0283,VALID,85,VALID,0.867383,
2005-03-13, 00:33:00,VALID,918.569,VALID,0,VALID,99.9822,VALID,0,VALID,20.035,VALID,87,VALID,0.829901,
2005-03-13, 00:34:00,VALID,918.568,VALID,0,VALID,100,VALID,-0.0339617,VALID,20.0256,VALID,82,VALID,0.777616,
2005-03-13, 00:35:00,VALID,918.568,VALID,0,VALID,99.9865,VALID,-0.0339617,VALID,20.0097,VALID,86,VALID,0.70816,
2005-03-13, 00:36:00,VALID,918.561,VALID,0,VALID,100,VALID,-0.0339617,VALID,19.9869,VALID,60,VALID,0.809201,
2005-03-13, 00:37:00,VALID,918.561,VALID,0,VALID,100,VALID,-0.0169808,VALID,20.0067,VALID,64,VALID,0.775618,
2005-03-13, 00:38:00,VALID,918.533,VALID,0,VALID,100,VALID,-0.0169808,VALID,19.9933,VALID,79,VALID,0.66543,
2005-03-13, 00:39:00,VALID,918.529,VALID,0,VALID,100,VALID,-0.0169808,VALID,19.9772,VALID,81,VALID,0.536519,
2005-03-13, 00:40:00,VALID,918.505,VALID,0,VALID,100,VALID,0,VALID,19.9677,VALID,77,VALID,0.695135,
2005-03-13, 00:41:00,VALID,918.508,VALID,0,VALID,100,VALID,-0.0169808,VALID,19.968,VALID,79,VALID,0.594308,
2005-03-13, 00:42:00,VALID,918.514,VALID,0,VALID,100,VALID,-0.0339617,VALID,19.9645,VALID,80,VALID,0.494097,
2005-03-13, 00:43:00,VALID,918.523,VALID,0,VALID,100,VALID,-0.0339617,VALID,19.9518,VALID,80,VALID,0.478924,
2005-03-13, 00:44:00,VALID,918.538,VALID,0,VALID,100,VALID,-0.0169808,VALID,19.9481,VALID,82,VALID,0.546148,
2005-03-13, 00:45:00,VALID,918.541,VALID,0,VALID,100,VALID,0,VALID,19.9548,VALID,82,VALID,0.516715,
2005-03-13, 00:46:00,VALID,918.529,VALID,0,VALID,100,VALID,-0.0169808,VALID,19.9583,VALID,81,VALID,0.552401,
2005-03-13, 00:47:00,VALID,918.51,VALID,0,VALID,100,VALID,-0.0169808,VALID,19.9357,VALID,81,VALID,0.694382,
2005-03-13, 00:48:00,VALID,918.496,VALID,0,VALID,100,VALID,0,VALID,19.9287,VALID,82,VALID,0.969122,
2005-03-13, 00:49:00,VALID,918.482,VALID,0,VALID,100,VALID,-0.0509425,VALID,19.9201,VALID,82,VALID,0.786735,
2005-03-13, 00:50:00,VALID,918.476,VALID,0,VALID,100,VALID,-0.101885,VALID,19.9084,VALID,81,VALID,0.840745,
2005-03-13, 00:51:00,VALID,918.463,VALID,0,VALID,100,VALID,-0.118866,VALID,19.895,VALID,89,VALID,0.908612,
2005-03-13, 00:52:00,VALID,918.459,VALID,0,VALID,100,VALID,-0.101885,VALID,19.8788,VALID,96,VALID,0.956555,
2005-03-13, 00:53:00,VALID,918.463,VALID,0,VALID,100,VALID,-0.118866,VALID,19.8858,VALID,103,VALID,0.60766,
2005-03-13, 00:54:00,VALID,918.479,VALID,0,VALID,100,VALID,-0.118866,VALID,19.8627,VALID,97,VALID,0.615141,
2005-03-13, 00:55:00,VALID,918.485,VALID,0,VALID,100,VALID,-0.101885,VALID,19.8465,VALID,105,VALID,0.662997,
2005-03-13, 00:56:00,VALID,918.49,VALID,0,VALID,100,VALID,-0.135847,VALID,19.8527,VALID,117,VALID,0.673958,
2005-03-13, 00:57:00,VALID,918.494,VALID,0,VALID,100,VALID,-0.101885,VALID,19.856,VALID,122,VALID,0.537946,
2005-03-13, 00:58:00,VALID,918.493,VALID,0,VALID,100,VALID,-0.118866,VALID,19.8592,VALID,121,VALID,0.471768,
2005-03-13, 00:59:00,VALID,918.492,VALID,0,VALID,100,VALID,-0.101885,VALID,19.8729,VALID,118,VALID,0.593178,
2005-03-13, 01:00:00,VALID,918.472,VALID,0,VALID,100,VALID,-0.101885,VALID,19.8726,VALID,119,VALID,0.833203,
2005-03-13, 01:01:00,VALID,918.456,VALID,0,VALID,100,VALID,-0.135847,VALID,19.8957,VALID,117,VALID,0.594477,
2005-03-13, 01:02:00,VALID,918.434,VALID,0,VALID,100,VALID,-0.118866,VALID,19.8888,VALID,116,VALID,0.35665,
2005-03-13, 01:03:00,VALID,918.399,VALID,0,VALID,100,VALID,-0.135847,VALID,19.8925,VALID,97,VALID,0.871652,
2005-03-13, 01:04:00,VALID,918.385,VALID,0,VALID,100,VALID,-0.0849042,VALID,19.8883,VALID,109,VALID,0.977778,
2005-03-13, 01:05:00,VALID,918.359,VALID,0,VALID,100,VALID,-0.0169808,VALID,19.8845,VALID,96,VALID,0.476017,
2005-03-13, 01:06:00,VALID,918.325,VALID,0,VALID,100,VALID,-0.0339617,VALID,19.8617,VALID,87,VALID,0.829241,
2005-03-13, 01:07:00,VALID,918.309,VALID,0,VALID,100,VALID,-0.0169808,VALID,19.849,VALID,106,VALID,0.647693,
2005-03-13, 01:08:00,VALID,918.298,VALID,0,VALID,100,VALID,-0.0169808,VALID,19.8426,VALID,104,VALID,0.84096,
2005-03-13, 01:09:00,VALID,918.288,VALID,0,VALID,100,VALID,0,VALID,19.8364,VALID,79,VALID,0.629861,
2005-03-13, 01:10:00,VALID,918.27,VALID,0,VALID,100,VALID,-0.0169808,VALID,19.8165,VALID,88,VALID,1.05822,
2005-03-13, 01:11:00,VALID,918.267,VALID,0,VALID,100,VALID,-0.0169808,VALID,19.8428,VALID,84,VALID,1.03958,
2005-03-13, 01:12:00,VALID,918.256,VALID,0,VALID,100,VALID,-0.0509425,VALID,19.8296,VALID,88,VALID,0.942224,
2005-03-13, 01:13:00,VALID,918.253,VALID,0,VALID,100,VALID,-0.0169808,VALID,19.8296,VALID,97,VALID,0.846608,
2005-03-13, 01:14:00,VALID,918.247,VALID,0,VALID,100,VALID,0,VALID,19.8227,VALID,97,VALID,0.738281,
2005-03-13, 01:15:00,VALID,918.249,VALID,0,VALID,100,VALID,0,VALID,19.82,VALID,101,VALID,0.624256,
2005-03-13, 01:16:00,VALID,918.246,VALID,0,VALID,100,VALID,-0.0509425,VALID,19.8262,VALID,109,VALID,0.568979,
2005-03-13, 01:17:00,VALID,918.254,VALID,0,VALID,100,VALID,-0.0339617,VALID,19.8522,VALID,123,VALID,0.476376,
2005-03-13, 01:18:00,VALID,918.244,VALID,0,VALID,100,VALID,-0.0509425,VALID,19.8719,VALID,124,VALID,0.723242,
2005-03-13, 01:19:00,VALID,918.231,VALID,0,VALID,100,VALID,-0.0509425,VALID,19.8716,VALID,129,VALID,0.630632,
2005-03-13, 01:20:00,VALID,918.223,VALID,0,VALID,100,VALID,-0.0849042,VALID,19.8845,VALID,119,VALID,0.617686,
2005-03-13, 01:21:00,VALID,918.199,VALID,0,VALID,100,VALID,-0.0169808,VALID,19.891,VALID,127,VALID,0.608631,
2005-03-13, 01:22:00,VALID,918.186,VALID,0,VALID,100,VALID,-0.0339617,VALID,19.8937,VALID,143,VALID,0.564258,
2005-03-13, 01:23:00,VALID,918.185,VALID,0,VALID,100,VALID,-0.0339617,VALID,19.897,VALID,132,VALID,0.65625,
2005-03-13, 01:24:00,VALID,918.175,VALID,0,VALID,100,VALID,-0.0339617,VALID,19.8997,VALID,134,VALID,0.363377,
2005-03-13, 01:25:00,VALID,918.164,VALID,0,VALID,100,VALID,-0.0339617,VALID,19.9196,VALID,132,VALID,0.290799,
2005-03-13, 01:26:00,VALID,918.164,VALID,0,VALID,100,VALID,-0.0169808,VALID,19.9317,VALID,130,VALID,0.178385,
2005-03-13, 01:27:00,VALID,918.145,VALID,0,VALID,100,VALID,-0.0169808,VALID,19.9449,VALID,130,VALID,0.457849,
2005-03-13, 01:28:00,VALID,918.142,VALID,0,VALID,100,VALID,-0.0339617,VALID,19.9551,VALID,131,VALID,0.506904,
2005-03-13, 01:29:00,VALID,918.136,VALID,0,VALID,100,VALID,-0.0339617,VALID,19.9511,VALID,129,VALID,0.298118,
2005-03-13, 01:30:00,VALID,918.137,VALID,0,VALID,100,VALID,-0.0509425,VALID,19.9613,VALID,128,VALID,0.289249,
2005-03-13, 01:31:00,VALID,918.142,VALID,0,VALID,100,VALID,-0.0679233,VALID,19.9648,VALID,128,VALID,0.281622,
2005-03-13, 01:32:00,VALID,918.141,VALID,0,VALID,100,VALID,-0.0679233,VALID,19.9812,VALID,128,VALID,0.0866319,
2005-03-13, 01:33:00,VALID,918.132,VALID,0,VALID,100,VALID,-0.0169808,VALID,19.9906,VALID,125,VALID,0.471726,
2005-03-13, 01:34:00,VALID,918.141,VALID,0,VALID,100,VALID,-0.0339617,VALID,19.9839,VALID,126,VALID,0.638368,
2005-03-13, 01:35:00,VALID,918.135,VALID,0,VALID,100,VALID,-0.0169808,VALID,19.9908,VALID,126,VALID,0.460756,
2005-03-13, 01:36:00,VALID,918.144,VALID,0,VALID,100,VALID,-0.0679233,VALID,20.0005,VALID,118,VALID,0.415737,
2005-03-13, 01:37:00,VALID,918.135,VALID,0,VALID,100,VALID,-0.0849042,VALID,19.9903,VALID,138,VALID,0.806021,
2005-03-13, 01:38:00,VALID,918.125,VALID,0,VALID,100,VALID,-0.0849042,VALID,20.0137,VALID,133,VALID,0.717478,
2005-03-13, 01:39:00,VALID,918.109,VALID,0,VALID,100,VALID,-0.0339617,VALID,20.0035,VALID,132,VALID,0.536882,
2005-03-13, 01:40:00,VALID,918.104,VALID,0,VALID,100,VALID,-0.0509425,VALID,20.0105,VALID,136,VALID,0.542436,
2005-03-13, 01:41:00,VALID,918.083,VALID,0,VALID,100,VALID,-0.0339617,VALID,20.0102,VALID,136,VALID,0.585565,
2005-03-13, 01:42:00,VALID,918.075,VALID,0,VALID,100,VALID,-0.0849042,VALID,20.01,VALID,136,VALID,0.3391,
2005-03-13, 01:43:00,VALID,918.047,VALID,0,VALID,100,VALID,-0.0679233,VALID,20.0199,VALID,136,VALID,0.336115,
2005-03-13, 01:44:00,VALID,918.036,VALID,0,VALID,100,VALID,-0.0509425,VALID,20.0301,VALID,140,VALID,0.403161,
2005-03-13, 01:45:00,VALID,918.028,VALID,0,VALID,100,VALID,-0.0509425,VALID,20.0363,VALID,144,VALID,0.450149,
2005-03-13, 01:46:00,VALID,918.019,VALID,0,VALID,100,VALID,-0.0679233,VALID,20.0261,VALID,144,VALID,0.530664,
2005-03-13, 01:47:00,VALID,918.016,VALID,0,VALID,100,VALID,-0.0169808,VALID,20.0495,VALID,144,VALID,0.567769,
2005-03-13, 01:48:00,VALID,918.007,VALID,0,VALID,100,VALID,-0.0509425,VALID,20.0462,VALID,144,VALID,0.45625,
2005-03-13, 01:49:00,VALID,918.006,VALID,0,VALID,100,VALID,-0.101885,VALID,20.0288,VALID,144,VALID,0.360618,
2005-03-13, 01:50:00,VALID,917.995,VALID,0,VALID,100,VALID,-0.0509425,VALID,20.0425,VALID,145,VALID,0.508203,
2005-03-13, 01:51:00,VALID,917.999,VALID,0,VALID,100,VALID,-0.0339617,VALID,20.0517,VALID,147,VALID,0.547965,
2005-03-13, 01:52:00,VALID,918,VALID,0,VALID,100,VALID,-0.0509425,VALID,20.0592,VALID,153,VALID,0.758765,
2005-03-13, 01:53:00,VALID,917.997,VALID,0,VALID,100,VALID,-0.0509425,VALID,20.0487,VALID,142,VALID,0.633903,
2005-03-13, 01:54:00,VALID,917.984,VALID,0,VALID,100,VALID,-0.0509425,VALID,20.0395,VALID,133,VALID,0.623857,
2005-03-13, 01:55:00,VALID,917.971,VALID,0,VALID,100,VALID,-0.0849042,VALID,20.0067,VALID,113,VALID,0.941584,
2005-03-13, 01:56:00,VALID,917.967,VALID,0,VALID,100,VALID,-0.0849042,VALID,20.0236,VALID,108,VALID,0.552871,
2005-03-13, 01:57:00,VALID,917.96,VALID,0,VALID,100,VALID,-0.0509425,VALID,20.0134,VALID,96,VALID,0.614984,
2005-03-13, 01:58:00,VALID,917.94,VALID,0,VALID,100,VALID,-0.0509425,VALID,20.0129,VALID,94,VALID,0.707126,
2005-03-13, 01:59:00,VALID,917.934,VALID,0,VALID,100,VALID,-0.0679233,VALID,19.9933,VALID,113,VALID,0.706473,
2005-03-13, 02:00:00,VALID,917.935,VALID,0,VALID,100,VALID,-0.0509425,VALID,20,VALID,106,VALID,0.860263,
2005-03-13, 02:01:00,VALID,917.924,VALID,0,VALID,100,VALID,-0.0679233,VALID,19.9841,VALID,100,VALID,0.898983,
2005-03-13, 02:02:00,VALID,917.91,VALID,0,VALID,100,VALID,0,VALID,19.9677,VALID,111,VALID,0.787464,
2005-03-13, 02:03:00,VALID,917.902,VALID,0,VALID,100,VALID,-0.0679233,VALID,19.9518,VALID,110,VALID,0.592226,
2005-03-13, 02:04:00,VALID,917.887,VALID,0,VALID,100,VALID,-0.0339617,VALID,19.9481,VALID,123,VALID,0.771909,
2005-03-13, 02:05:00,VALID,917.862,VALID,0,VALID,100,VALID,-0.0849042,VALID,19.9322,VALID,131,VALID,0.845022,
2005-03-13, 02:06:00,VALID,917.838,VALID,0,VALID,100,VALID,-0.0509425,VALID,19.936,VALID,128,VALID,0.773256,
2005-03-13, 02:07:00,VALID,917.801,VALID,0,VALID,100,VALID,-0.0509425,VALID,19.923,VALID,130,VALID,1.02816,
2005-03-13, 02:08:00,VALID,917.767,VALID,0,VALID,100,VALID,-0.0679233,VALID,19.9037,VALID,134,VALID,0.499653,
2005-03-13, 02:09:00,VALID,917.743,VALID,0,VALID,100,VALID,0,VALID,19.8743,VALID,126,VALID,0.78561,
2005-03-13, 02:10:00,VALID,917.729,VALID,0,VALID,100,VALID,-0.0849042,VALID,19.8585,VALID,123,VALID,0.844105,
2005-03-13, 02:11:00,VALID,917.703,VALID,0,VALID,100,VALID,-0.0679233,VALID,19.8291,VALID,118,VALID,0.955412,
2005-03-13, 02:12:00,VALID,917.681,VALID,0,VALID,100,VALID,-0.0339617,VALID,19.8132,VALID,108,VALID,0.816315,
2005-03-13, 02:13:00,VALID,917.659,VALID,0,VALID,100,VALID,-0.0509425,VALID,19.7974,VALID,111,VALID,0.984908,
2005-03-13, 02:14:00,VALID,917.626,VALID,0,VALID,100,VALID,-0.0679233,VALID,19.775,VALID,111,VALID,1.21203,
2005-03-13, 02:15:00,VALID,917.597,VALID,0,VALID,100,VALID,-0.0679233,VALID,19.7459,VALID,106,VALID,1.32012,
2005-03-13, 02:16:00,VALID,917.566,VALID,0,VALID,100,VALID,-0.0679233,VALID,19.7228,VALID,116,VALID,1.23066,
2005-03-13, 02:17:00,VALID,917.541,VALID,0,VALID,100,VALID,-0.0169808,VALID,19.6878,VALID,117,VALID,0.871484,
2005-03-13, 02:18:00,VALID,917.514,VALID,0,VALID,100,VALID,-0.0339617,VALID,19.6516,VALID,118,VALID,0.785239,
2005-03-13, 02:19:00,VALID,917.481,VALID,0,VALID,100,VALID,-0.0339617,VALID,19.6357,VALID,125,VALID,1.14462,
2005-03-13, 02:20:00,VALID,917.471,VALID,0,VALID,100,VALID,0,VALID,19.6059,VALID,124,VALID,1.29097,
2005-03-13, 02:21:00,VALID,917.467,VALID,0,VALID,100,VALID,0,VALID,19.6098,VALID,117,VALID,1.22554,
2005-03-13, 02:22:00,VALID,917.469,VALID,0,VALID,100,VALID,-0.0169808,VALID,19.5902,VALID,112,VALID,1.02788,
2005-03-13, 02:23:00,VALID,917.479,VALID,0,VALID,100,VALID,0,VALID,19.5835,VALID,112,VALID,1.37995,
2005-03-13, 02:24:00,VALID,917.485,VALID,0,VALID,100,VALID,0,VALID,19.5974,VALID,115,VALID,1.13504,
2005-03-13, 02:25:00,VALID,917.497,VALID,0,VALID,100,VALID,0,VALID,19.5867,VALID,101,VALID,1.20332,
2005-03-13, 02:26:00,VALID,917.511,VALID,0,VALID,100,VALID,0,VALID,19.5803,VALID,107,VALID,1.2314,
2005-03-13, 02:27:00,VALID,917.531,VALID,0,VALID,100,VALID,0,VALID,19.5805,VALID,81,VALID,0.902257,
2005-03-13, 02:28:00,VALID,917.556,VALID,0,VALID,100,VALID,-0.0169808,VALID,19.5641,VALID,84,VALID,1.07187,
2005-03-13, 02:29:00,VALID,917.543,VALID,0,VALID,100,VALID,0,VALID,19.5684,VALID,83,VALID,0.919695,
2005-03-13, 02:30:00,VALID,917.546,VALID,0,VALID,100,VALID,0,VALID,19.5549,VALID,94,VALID,0.935724,
2005-03-13, 02:31:00,VALID,917.538,VALID,0,VALID,100,VALID,-0.0169808,VALID,19.5361,VALID,85,VALID,0.805959,
2005-03-13, 02:32:00,VALID,917.533,VALID,0,VALID,100,VALID,0,VALID,19.5197,VALID,115,VALID,1.10352,
2005-03-13, 02:33:00,VALID,917.536,VALID,0,VALID,100,VALID,0,VALID,19.5063,VALID,114,VALID,0.747954,
2005-03-13, 02:34:00,VALID,917.54,VALID,0,VALID,100,VALID,0,VALID,19.4961,VALID,109,VALID,1.01217,
2005-03-13, 02:35:00,VALID,917.55,VALID,0,VALID,100,VALID,0.0169808,VALID,19.5229,VALID,105,VALID,0.562872,
2005-03-13, 02:36:00,VALID,917.553,VALID,0,VALID,100,VALID,0,VALID,19.5063,VALID,106,VALID,0.724609,
2005-03-13, 02:37:00,VALID,917.553,VALID,0,VALID,100,VALID,-0.0169808,VALID,19.5229,VALID,122,VALID,0.754278,
2005-03-13, 02:38:00,VALID,917.554,VALID,0,VALID,100,VALID,0,VALID,19.5328,VALID,115,VALID,0.765807,
2005-03-13, 02:39:00,VALID,917.545,VALID,0,VALID,100,VALID,-0.0339617,VALID,19.5356,VALID,134,VALID,0.877232,
2005-03-13, 02:40:00,VALID,917.54,VALID,0,VALID,100,VALID,-0.0169808,VALID,19.5584,VALID,116,VALID,0.727095,
2005-03-13, 02:41:00,VALID,917.536,VALID,0,VALID,100,VALID,0,VALID,19.5619,VALID,101,VALID,0.848514,
2005-03-13, 02:42:00,VALID,917.525,VALID,0,VALID,100,VALID,0,VALID,19.5589,VALID,82,VALID,0.485764,
2005-03-13, 02:43:00,VALID,917.521,VALID,0,VALID,100,VALID,-0.0169808,VALID,19.542,VALID,89,VALID,0.732067,
2005-03-13, 02:44:00,VALID,917.505,VALID,0,VALID,100,VALID,0,VALID,19.5425,VALID,104,VALID,0.87718,
2005-03-13, 02:45:00,VALID,917.515,VALID,0,VALID,100,VALID,0,VALID,19.5517,VALID,122,VALID,0.751389,
2005-03-13, 02:46:00,VALID,917.492,VALID,0,VALID,100,VALID,0,VALID,19.5552,VALID,113,VALID,0.608994,
2005-03-13, 02:47:00,VALID,917.493,VALID,0,VALID,100,VALID,-0.0169808,VALID,19.5681,VALID,97,VALID,0.447311,
2005-03-13, 02:48:00,VALID,917.494,VALID,0,VALID,100,VALID,0,VALID,19.5684,VALID,97,VALID,0.236979,
2005-03-13, 02:49:00,VALID,917.478,VALID,0,VALID,100,VALID,-0.0169808,VALID,19.5587,VALID,97,VALID,0.109947,
2005-03-13, 02:50:00,VALID,917.475,VALID,0,VALID,100,VALID,-0.0169808,VALID,19.5656,VALID,97,VALID,0,
2005-03-13, 02:51:00,VALID,917.476,VALID,0,VALID,100,VALID,-0.0339617,VALID,19.5619,VALID,97,VALID,0,
2005-03-13, 02:52:00,VALID,917.465,VALID,0,VALID,99.9964,VALID,0,VALID,19.5587,VALID,97,VALID,0,
2005-03-13, 02:53:00,VALID,917.463,VALID,0,VALID,99.9379,VALID,-0.0169808,VALID,19.552,VALID,97,VALID,0.0398065,
2005-03-13, 02:54:00,VALID,917.454,VALID,0,VALID,99.8375,VALID,0,VALID,19.539,VALID,94,VALID,0.191602,
2005-03-13, 02:55:00,VALID,917.425,VALID,0,VALID,99.7548,VALID,0,VALID,19.5231,VALID,86,VALID,0.338341,
2005-03-13, 02:56:00,VALID,917.411,VALID,0,VALID,99.6353,VALID,0,VALID,19.5236,VALID,85,VALID,0.388672,
2005-03-13, 02:57:00,VALID,917.391,VALID,0,VALID,99.6264,VALID,0,VALID,19.5038,VALID,85,VALID,0.550409,
2005-03-13, 02:58:00,VALID,917.378,VALID,0,VALID,99.5895,VALID,0.0169808,VALID,19.4879,VALID,85,VALID,0.318056,
2005-03-13, 02:59:00,VALID,917.352,VALID,0,VALID,99.5679,VALID,0,VALID,19.4717,VALID,85,VALID,0.321584,
2005-03-13, 03:00:00,VALID,917.33,VALID,0,VALID,99.545,VALID,0,VALID,19.4553,VALID,85,VALID,0.39098,
2005-03-13, 03:01:00,VALID,917.293,VALID,0,VALID,99.5883,VALID,-0.0849042,VALID,19.4491,VALID,85,VALID,0.428943,
2005-03-13, 03:02:00,VALID,917.268,VALID,0,VALID,99.601,VALID,0,VALID,19.4422,VALID,85,VALID,0.333807,
2005-03-13, 03:03:00,VALID,917.244,VALID,0,VALID,99.4611,VALID,0,VALID,19.426,VALID,85,VALID,0.421131,
2005-03-13, 03:04:00,VALID,917.216,VALID,0,VALID,99.4179,VALID,-0.0169808,VALID,19.4203,VALID,85,VALID,0.353051,
2005-03-13, 03:05:00,VALID,917.204,VALID,0,VALID,99.4268,VALID,-0.0849042,VALID,19.3913,VALID,85,VALID,0.428089,
2005-03-13, 03:06:00,VALID,917.197,VALID,0,VALID,99.5272,VALID,-0.0509425,VALID,19.3751,VALID,85,VALID,0.501234,
2005-03-13, 03:07:00,VALID,917.176,VALID,0,VALID,99.6366,VALID,-0.0339617,VALID,19.3786,VALID,85,VALID,0.731213,
2005-03-13, 03:08:00,VALID,917.154,VALID,0,VALID,99.7116,VALID,-0.0679233,VALID,19.3691,VALID,96,VALID,0.895433,
2005-03-13, 03:09:00,VALID,917.128,VALID,0,VALID,99.8159,VALID,-0.101885,VALID,19.3394,VALID,106,VALID,1.07459,
2005-03-13, 03:10:00,VALID,917.107,VALID,0,VALID,99.8375,VALID,-0.0509425,VALID,19.3364,VALID,107,VALID,1.21503,
2005-03-13, 03:11:00,VALID,917.078,VALID,0,VALID,99.929,VALID,-0.0679233,VALID,19.3172,VALID,107,VALID,1.20422,
2005-03-13, 03:12:00,VALID,917.072,VALID,0,VALID,99.9603,VALID,-0.0509425,VALID,19.3105,VALID,107,VALID,0.980378,
2005-03-13, 03:13:00,VALID,917.063,VALID,0,VALID,99.9916,VALID,-0.0679233,VALID,19.3135,VALID,106,VALID,1.14653,
2005-03-13, 03:14:00,VALID,917.07,VALID,0,VALID,100,VALID,-0.0849042,VALID,19.3373,VALID,100,VALID,0.857777,
2005-03-13, 03:15:00,VALID,917.076,VALID,0,VALID,100,VALID,-0.0849042,VALID,19.3373,VALID,103,VALID,0.60831,
2005-03-13, 03:16:00,VALID,917.057,VALID,0,VALID,100,VALID,-0.0679233,VALID,19.3565,VALID,110,VALID,0.687119,
2005-03-13, 03:17:00,VALID,917.046,VALID,0,VALID,100,VALID,-0.0509425,VALID,19.359,VALID,110,VALID,0.796875,
2005-03-13, 03:18:00,VALID,917.039,VALID,0,VALID,100,VALID,-0.0339617,VALID,19.3657,VALID,115,VALID,1.15996,
2005-03-13, 03:19:00,VALID,917.022,VALID,0,VALID,100,VALID,-0.0509425,VALID,19.3756,VALID,111,VALID,1.12355,
2005-03-13, 03:20:00,VALID,917.028,VALID,0,VALID,100,VALID,-0.0509425,VALID,19.3622,VALID,125,VALID,1.12266,
2005-03-13, 03:21:00,VALID,917.02,VALID,0,VALID,100,VALID,-0.0679233,VALID,19.3662,VALID,135,VALID,1.10023,
2005-03-13, 03:22:00,VALID,917.012,VALID,0,VALID,100,VALID,-0.0679233,VALID,19.3756,VALID,131,VALID,1.05323,
2005-03-13, 03:23:00,VALID,917.015,VALID,0,VALID,100,VALID,-0.0509425,VALID,19.3788,VALID,116,VALID,0.815696,
2005-03-13, 03:24:00,VALID,917.034,VALID,0,VALID,100,VALID,-0.0679233,VALID,19.3754,VALID,121,VALID,1.00381,
2005-03-13, 03:25:00,VALID,917.03,VALID,0,VALID,100,VALID,-0.101885,VALID,19.3721,VALID,125,VALID,0.977679,
2005-03-13, 03:26:00,VALID,917.045,VALID,0,VALID,100,VALID,-0.0679233,VALID,19.3848,VALID,116,VALID,0.952753,
2005-03-13, 03:27:00,VALID,917.047,VALID,0,VALID,100,VALID,-0.0679233,VALID,19.3786,VALID,126,VALID,0.910689,
2005-03-13, 03:28:00,VALID,917.038,VALID,0,VALID,100,VALID,-0.0679233,VALID,19.3915,VALID,131,VALID,1.29611,
2005-03-13, 03:29:00,VALID,917.03,VALID,0,VALID,100,VALID,-0.0679233,VALID,19.3947,VALID,135,VALID,1.00283,
2005-03-13, 03:30:00,VALID,917.017,VALID,0,VALID,100,VALID,-0.0339617,VALID,19.4109,VALID,134,VALID,1.16016,
2005-03-13, 03:31:00,VALID,916.996,VALID,0,VALID,100,VALID,-0.0849042,VALID,19.4173,VALID,133,VALID,0.70846,
2005-03-13, 03:32:00,VALID,916.979,VALID,0,VALID,100,VALID,-0.0339617,VALID,19.4139,VALID,133,VALID,1.20258,
2005-03-13, 03:33:00,VALID,916.958,VALID,0,VALID,100,VALID,-0.0509425,VALID,19.4365,VALID,137,VALID,0.965402,
2005-03-13, 03:34:00,VALID,916.928,VALID,0,VALID,99.988,VALID,-0.0679233,VALID,19.4437,VALID,127,VALID,1.28697,
2005-03-13, 03:35:00,VALID,916.894,VALID,0,VALID,99.9049,VALID,-0.0509425,VALID,19.4397,VALID,127,VALID,1.26097,
2005-03-13, 03:36:00,VALID,916.881,VALID,0,VALID,99.8629,VALID,-0.0679233,VALID,19.4531,VALID,122,VALID,1.33315,
2005-03-13, 03:37:00,VALID,916.865,VALID,0,VALID,99.8019,VALID,-0.101885,VALID,19.4628,VALID,124,VALID,1.23379,